| time (UTC) | temp F | wind direction | speed MPH | gust MPH | rain 1hr in | rain 24hr in | rain mn in | humidity % | barometer mb |
| 20260508231436 | 54 | 90 | 0.0 | 3.0 | 0.00 | 0.00 | 0.00 | 74 | 1018.4 |
| 20260508230436 | 54 | 90 | 1.0 | 4.0 | 0.00 | 0.00 | 0.00 | 73 | 1018.5 |
| 20260508225436 | 54 | 90 | 3.0 | 6.0 | 0.00 | 0.00 | 0.00 | 73 | 1018.3 |
| 20260508224436 | 54 | 68 | 2.0 | 4.0 | 0.00 | 0.00 | 0.00 | 74 | 1018.4 |
| 20260508223436 | 55 | 68 | 2.0 | 4.0 | 0.00 | 0.00 | 0.00 | 74 | 1018.3 |
| 20260508222436 | 55 | 68 | 2.0 | 4.0 | 0.00 | 0.00 | 0.00 | 73 | 1018.4 |
| 20260508221436 | 55 | 90 | 2.0 | 5.0 | 0.00 | 0.00 | 0.00 | 72 | 1018.3 |
| 20260508220436 | 56 | 90 | 3.0 | 8.0 | 0.00 | 0.00 | 0.00 | 72 | 1018.3 |
| 20260508215436 | 55 | 68 | 5.0 | 10.0 | 0.00 | 0.00 | 0.00 | 72 | 1018.3 |
| 20260508214436 | 55 | 68 | 3.0 | 8.0 | 0.00 | 0.00 | 0.00 | 73 | 1018.3 |
| 20260508213436 | 55 | 68 | 2.0 | 6.0 | 0.00 | 0.00 | 0.00 | 74 | 1018.2 |
| 20260508212436 | 55 | 68 | 2.0 | 4.0 | 0.00 | 0.00 | 0.00 | 74 | 1018.3 |
| 20260508211436 | 56 | 45 | 3.0 | 5.0 | 0.00 | 0.00 | 0.00 | 74 | 1018.3 |
| 20260508210436 | 56 | 45 | 4.0 | 6.0 | 0.00 | 0.00 | 0.00 | 73 | 1018.1 |
| 20260508205436 | 56 | 45 | 4.0 | 8.0 | 0.00 | 0.00 | 0.00 | 73 | 1018.0 |
| 20260508204436 | 56 | 45 | 4.0 | 9.0 | 0.00 | 0.00 | 0.00 | 72 | 1018.0 |
| 20260508203436 | 57 | 45 | 4.0 | 6.0 | 0.00 | 0.00 | 0.00 | 71 | 1018.1 |
| 20260508202436 | 57 | 45 | 4.0 | 7.0 | 0.00 | 0.00 | 0.00 | 71 | 1018.1 |
| 20260508201436 | 57 | 45 | 5.0 | 9.0 | 0.00 | 0.00 | 0.00 | 70 | 1018.1 |
| 20260508200436 | 58 | 45 | 5.0 | 8.0 | 0.00 | 0.00 | 0.00 | 69 | 1018.1 |
| 20260508195436 | 58 | 45 | 5.0 | 9.0 | 0.00 | 0.00 | 0.00 | 68 | 1018.1 |
| 20260508194436 | 58 | 68 | 4.0 | 11.0 | 0.00 | 0.00 | 0.00 | 67 | 1017.9 |
| 20260508193436 | 59 | 68 | 5.0 | 10.0 | 0.00 | 0.00 | 0.00 | 66 | 1017.6 |
| 20260508191253 | 61 | 68 | 5.0 | 11.0 | 0.00 | 0.00 | 0.00 | 64 | 1017.5 |
| 20260508190253 | 61 | 68 | 5.0 | 11.0 | 0.00 | 0.00 | 0.00 | 64 | 1017.3 |
| 20260508185253 | 61 | 68 | 5.0 | 11.0 | 0.00 | 0.00 | 0.00 | 64 | 1017.2 |
| 20260508184252 | 61 | 68 | 5.0 | 11.0 | 0.00 | 0.00 | 0.00 | 64 | 1017.0 |
| 20260508183252 | 62 | 68 | 5.0 | 11.0 | 0.00 | 0.00 | 0.00 | 63 | 1016.9 |
| 20260508182252 | 62 | 68 | 5.0 | 10.0 | 0.00 | 0.00 | 0.00 | 63 | 1016.9 |
| 20260508181252 | 62 | 68 | 5.0 | 10.0 | 0.00 | 0.00 | 0.00 | 62 | 1016.8 |
| 20260508180252 | 63 | 68 | 6.0 | 12.0 | 0.00 | 0.00 | 0.00 | 61 | 1016.6 |
| 20260508175252 | 63 | 45 | 5.0 | 13.0 | 0.00 | 0.00 | 0.00 | 60 | 1016.4 |
| 20260508174252 | 64 | 68 | 5.0 | 10.0 | 0.00 | 0.00 | 0.00 | 62 | 1016.4 |
| 20260508173252 | 64 | 45 | 9.0 | 14.0 | 0.00 | 0.00 | 0.00 | 61 | 1016.3 |
| 20260508172252 | 64 | 45 | 8.0 | 15.0 | 0.00 | 0.00 | 0.00 | 60 | 1016.3 |
| 20260508171252 | 64 | 45 | 8.0 | 15.0 | 0.00 | 0.00 | 0.00 | 60 | 1016.2 |
| 20260508170252 | 64 | 45 | 7.0 | 16.0 | 0.00 | 0.00 | 0.00 | 60 | 1016.1 |
| 20260508165252 | 64 | 45 | 8.0 | 14.0 | 0.00 | 0.00 | 0.00 | 59 | 1016.1 |
| 20260508164252 | 65 | 45 | 8.0 | 14.0 | 0.00 | 0.00 | 0.00 | 60 | 1016.2 |
| 20260508163252 | 65 | 68 | 7.0 | 16.0 | 0.00 | 0.00 | 0.00 | 59 | 1016.4 |
| 20260508162252 | 65 | 45 | 8.0 | 16.0 | 0.00 | 0.00 | 0.00 | 59 | 1016.1 |
| 20260508161252 | 65 | 45 | 7.0 | 13.0 | 0.00 | 0.00 | 0.00 | 58 | 1016.2 |
| 20260508160252 | 66 | 22 | 7.0 | 12.0 | 0.00 | 0.00 | 0.00 | 59 | 1016.2 |
| 20260508155252 | 66 | 45 | 7.0 | 15.0 | 0.00 | 0.00 | 0.00 | 58 | 1016.3 |
| 20260508154252 | 66 | 45 | 6.0 | 13.0 | 0.00 | 0.00 | 0.00 | 57 | 1016.4 |
| 20260508153252 | 66 | 45 | 6.0 | 11.0 | 0.00 | 0.00 | 0.00 | 55 | 1016.3 |
| 20260508152252 | 66 | 45 | 4.0 | 9.0 | 0.00 | 0.00 | 0.00 | 57 | 1016.4 |
| 20260508151252 | 66 | 68 | 4.0 | 8.0 | 0.00 | 0.00 | 0.00 | 58 | 1016.4 |
| 20260508150252 | 65 | 45 | 5.0 | 10.0 | 0.00 | 0.00 | 0.00 | 59 | 1016.6 |
| 20260508145252 | 66 | 45 | 7.0 | 12.0 | 0.00 | 0.00 | 0.00 | 57 | 1016.6 |
| 20260508144252 | 67 | 45 | 5.0 | 15.0 | 0.00 | 0.00 | 0.00 | 57 | 1016.7 |
| 20260508143252 | 67 | 22 | 4.0 | 11.0 | 0.00 | 0.00 | 0.00 | 53 | 1016.7 |
| 20260508142252 | 66 | 22 | 4.0 | 10.0 | 0.00 | 0.00 | 0.00 | 56 | 1016.8 |
| 20260508141252 | 66 | 68 | 5.0 | 11.0 | 0.00 | 0.00 | 0.00 | 56 | 1016.9 |
| 20260508140252 | 66 | 45 | 4.0 | 11.0 | 0.00 | 0.00 | 0.00 | 58 | 1017.0 |
| 20260508135252 | 65 | 90 | 6.0 | 11.0 | 0.00 | 0.01 | 0.00 | 57 | 1017.2 |
| 20260508134252 | 66 | 68 | 5.0 | 11.0 | 0.00 | 0.01 | 0.00 | 55 | 1017.1 |
| 20260508133251 | 65 | 90 | 4.0 | 10.0 | 0.00 | 0.01 | 0.00 | 55 | 1017.4 |
| 20260508132402 | 65 | 45 | 3.0 | 7.0 | 0.00 | 0.01 | 0.00 | 56 | 1017.4 |
| 20260508131402 | 65 | 45 | 3.0 | 9.0 | 0.00 | 0.01 | 0.00 | 56 | 1017.5 |
| 20260508130402 | 65 | 68 | 4.0 | 9.0 | 0.00 | 0.01 | 0.00 | 55 | 1017.5 |
| 20260508125402 | 66 | 68 | 4.0 | 9.0 | 0.00 | 0.01 | 0.00 | 54 | 1017.6 |
| 20260508124402 | 66 | 360 | 3.0 | 6.0 | 0.00 | 0.01 | 0.00 | 55 | 1017.5 |
| 20260508123402 | 65 | 360 | 3.0 | 9.0 | 0.00 | 0.01 | 0.00 | 56 | 1017.5 |
| 20260508095126 | 60 | 22 | 2.0 | 5.0 | 0.00 | 0.01 | 0.00 | 68 | 1018.7 |
| 20260508094839 | 59 | 22 | 2.0 | 6.0 | 0.00 | 0.01 | 0.00 | 69 | 1018.8 |
| 20260508093839 | 59 | 338 | 3.0 | 6.0 | 0.00 | 0.01 | 0.00 | 68 | 1018.9 |
| 20260508092839 | 59 | 338 | 3.0 | 6.0 | 0.00 | 0.01 | 0.00 | 69 | 1019.0 |
| 20260508091840 | 58 | 22 | 2.0 | 5.0 | 0.00 | 0.01 | 0.00 | 71 | 1019.1 |
| 20260508090839 | 58 | 45 | 2.0 | 5.0 | 0.00 | 0.01 | 0.00 | 71 | 1019.0 |
| 20260508085839 | 58 | 68 | 2.0 | 4.0 | 0.00 | 0.01 | 0.00 | 73 | 1019.0 |
| 20260508084840 | 57 | 45 | 2.0 | 5.0 | 0.00 | 0.01 | 0.00 | 74 | 1018.9 |
| 20260508083840 | 57 | 68 | 2.0 | 8.0 | 0.00 | 0.01 | 0.00 | 78 | 1018.9 |
| 20260508082839 | 56 | 45 | 2.0 | 4.0 | 0.00 | 0.01 | 0.00 | 80 | 1018.9 |
| 20260508081840 | 55 | 22 | 1.0 | 5.0 | 0.00 | 0.01 | 0.00 | 82 | 1019.0 |
| 20260508080840 | 55 | 338 | 1.0 | 5.0 | 0.00 | 0.01 | 0.00 | 85 | 1019.0 |
| 20260508075839 | 53 | 45 | 2.0 | 5.0 | 0.00 | 0.01 | 0.00 | 87 | 1019.0 |
| 20260508074841 | 52 | 45 | 3.0 | 5.0 | 0.00 | 0.01 | 0.00 | 90 | 1019.0 |
| 20260508073840 | 51 | 68 | 3.0 | 6.0 | 0.00 | 0.01 | 0.00 | 92 | 1019.0 |
| 20260508072839 | 50 | 45 | 3.0 | 7.0 | 0.00 | 0.01 | 0.00 | 93 | 1018.9 |
| 20260508071839 | 49 | 45 | 3.0 | 7.0 | 0.00 | 0.01 | 0.00 | 94 | 1018.9 |
| 20260508070840 | 48 | 45 | 4.0 | 6.0 | 0.00 | 0.01 | 0.00 | 94 | 1018.9 |
| 20260508065839 | 48 | 45 | 3.0 | 7.0 | 0.00 | 0.02 | 0.00 | 95 | 1018.9 |
| 20260508064839 | 47 | 45 | 2.0 | 4.0 | 0.00 | 0.02 | 0.00 | 95 | 1019.0 |
| 20260508063840 | 46 | 45 | 3.0 | 5.0 | 0.00 | 0.02 | 0.00 | 95 | 1018.9 |
| 20260508062840 | 45 | 45 | 2.0 | 4.0 | 0.00 | 0.02 | 0.00 | 95 | 1018.9 |
| 20260508061839 | 45 | 45 | 0.0 | 3.0 | 0.00 | 0.02 | 0.00 | 95 | 1018.8 |
| 20260508060840 | 45 | 0 | 0.0 | 0.0 | 0.00 | 0.02 | 0.00 | 95 | 1018.9 |
| 20260508055840 | 44 | 0 | 0.0 | 0.0 | 0.00 | 0.03 | 0.00 | 95 | 1018.8 |
| 20260508054839 | 44 | 225 | 0.0 | 1.0 | 0.00 | 0.03 | 0.00 | 95 | 1018.8 |
| 20260508053840 | 43 | 225 | 1.0 | 3.0 | 0.00 | 0.03 | 0.00 | 95 | 1018.8 |
| 20260508052840 | 43 | 225 | 1.0 | 3.0 | 0.00 | 0.03 | 0.00 | 95 | 1018.7 |
| 20260508051839 | 42 | 225 | 1.0 | 2.0 | 0.00 | 0.03 | 0.00 | 95 | 1018.8 |
| 20260508050840 | 42 | 225 | 1.0 | 2.0 | 0.00 | 0.03 | 0.00 | 94 | 1018.7 |
| 20260508045840 | 42 | 225 | 1.0 | 4.0 | 0.00 | 0.06 | 0.00 | 94 | 1018.6 |
| 20260508044839 | 42 | 225 | 1.0 | 3.0 | 0.00 | 0.06 | 0.00 | 94 | 1018.5 |
| 20260508043840 | 41 | 0 | 0.0 | 0.0 | 0.00 | 0.06 | 0.00 | 94 | 1018.3 |
| 20260508042840 | 41 | 0 | 0.0 | 0.0 | 0.00 | 0.06 | 0.00 | 94 | 1018.4 |
| 20260508041839 | 41 | 0 | 0.0 | 0.0 | 0.00 | 0.06 | 0.00 | 94 | 1018.4 |
| 20260508040840 | 40 | 0 | 0.0 | 0.0 | 0.00 | 0.06 | 0.00 | 94 | 1018.3 |
| 20260508035840 | 40 | 0 | 0.0 | 0.0 | 0.00 | 0.08 | 0.00 | 94 | 1018.3 |
| 20260508034840 | 40 | 0 | 0.0 | 0.0 | 0.00 | 0.08 | 0.00 | 94 | 1018.2 |
| 20260508033839 | 40 | 0 | 0.0 | 0.0 | 0.00 | 0.08 | 0.00 | 94 | 1018.2 |
| 20260508032841 | 40 | 0 | 0.0 | 0.0 | 0.00 | 0.08 | 0.00 | 94 | 1018.2 |
| 20260508031840 | 41 | 0 | 0.0 | 0.0 | 0.00 | 0.08 | 0.00 | 94 | 1018.2 |
| 20260508030839 | 41 | 0 | 0.0 | 0.0 | 0.00 | 0.08 | 0.00 | 94 | 1018.1 |
| 20260508025840 | 41 | 0 | 0.0 | 0.0 | 0.00 | 0.09 | 0.00 | 94 | 1018.0 |
| 20260508024840 | 41 | 0 | 0.0 | 0.0 | 0.00 | 0.09 | 0.00 | 93 | 1017.9 |
| 20260508023839 | 42 | 0 | 0.0 | 0.0 | 0.00 | 0.09 | 0.00 | 94 | 1018.0 |
| 20260508022840 | 42 | 0 | 0.0 | 0.0 | 0.00 | 0.09 | 0.00 | 93 | 1018.0 |
| 20260508021840 | 42 | 0 | 0.0 | 0.0 | 0.00 | 0.09 | 0.00 | 94 | 1018.1 |
| 20260508020839 | 42 | 0 | 0.0 | 0.0 | 0.00 | 0.09 | 0.00 | 94 | 1018.0 |
| 20260508015840 | 42 | 0 | 0.0 | 0.0 | 0.00 | 0.10 | 0.00 | 94 | 1017.9 |
| 20260508014840 | 42 | 0 | 0.0 | 0.0 | 0.00 | 0.10 | 0.00 | 94 | 1017.9 |
| 20260508013839 | 42 | 0 | 0.0 | 0.0 | 0.00 | 0.10 | 0.00 | 93 | 1018.0 |
| 20260508012840 | 42 | 0 | 0.0 | 0.0 | 0.00 | 0.10 | 0.00 | 93 | 1018.1 |
| 20260508011840 | 42 | 0 | 0.0 | 0.0 | 0.00 | 0.10 | 0.00 | 93 | 1018.0 |
| 20260508010839 | 43 | 45 | 2.0 | 5.0 | 0.00 | 0.10 | 0.00 | 93 | 1018.0 |
| 20260508005840 | 43 | 45 | 2.0 | 4.0 | 0.00 | 0.14 | 0.00 | 93 | 1018.1 |
| 20260508004840 | 43 | 45 | 2.0 | 4.0 | 0.00 | 0.14 | 0.00 | 93 | 1018.2 |
| 20260508003839 | 43 | 45 | 2.0 | 4.0 | 0.00 | 0.14 | 0.00 | 93 | 1018.3 |
| 20260508002840 | 43 | 45 | 2.0 | 4.0 | 0.00 | 0.14 | 0.00 | 93 | 1018.3 |
| 20260508001840 | 43 | 45 | 2.0 | 4.0 | 0.00 | 0.14 | 0.00 | 92 | 1018.3 |
| 20260508000839 | 44 | 45 | 3.0 | 5.0 | 0.00 | 0.14 | 0.00 | 92 | 1018.3 |
| 20260507235841 | 44 | 68 | 3.0 | 5.0 | 0.00 | 0.14 | 0.00 | 92 | 1018.5 |
| 20260507234840 | 44 | 68 | 2.0 | 4.0 | 0.00 | 0.14 | 0.00 | 92 | 1018.4 |
| 20260507233839 | 44 | 68 | 3.0 | 5.0 | 0.00 | 0.14 | 0.00 | 92 | 1018.4 |
| 20260507232841 | 44 | 90 | 1.0 | 5.0 | 0.00 | 0.14 | 0.00 | 92 | 1018.4 |
| 20260507231840 | 44 | 112 | 0.0 | 2.0 | 0.00 | 0.14 | 0.00 | 92 | 1018.5 |